EHI
0 0 0 0 0 0 0 0 0 0 0 0 0 0 0 0 0 0 0 0 0 0 0 0 0 0 0 0 0 0 0 0 0 0 0 0 0 0 0 0 0 0 0 0
0 0 0 0 0 0 0 0 0 0 0 0 0 0 0 0 0 0 0 0 0 0 0 0 0 0 0 0 0 0 0 0 0 0 0 0 0 0 0 0 0 0 0 0
0 0 0 0 0 0 0 0 0 0 0 0 0 0 0 0 0 0 0 0 0 0 0 0 0 0 0 0 0 0 0 0 0 0 0 0 0 0 0 0 0 0 0 0
0 0 0 0 0 0 0 0 0 0 0 0 0 0 0 0 0 0 0 0 0 0 0 0 0 0 0 0 0 0 0 0 0 0 0 0 0 0 0 0 0 0 0 0
0 0 0 0 0 0 0 0 0 0 0 0 0 0 0 0 0 0 0 0 0 0 0 0 0 0 0 0 0 0 0 0 0 0 0 0 0 0 0 0 0 0 0 0
0 0 0 0 0 0 0 0 0 0 0 0 0 0 0 0 0 0 0 0 0 0 0 0 0 0 0 0 0 0 0 0 0 0 0 0 0 0 0 0 0 0 0 0
0 0 0 0 0 0 0 0 0 0 0 0 0 0 0 0 0 0 0 0 0 0 0 0 0 0 0 0 0 0 0 0 0 0 0 0 0 0 0 0 0 0 0 0
0 0 0 0 0 0 0 0 0 0 0 0 0 0 0 0 0 0 0 0 0 0 0 0 0 0 0 0 0 0 0 0 0 0 0 0 0 0 0 0 0 0 0 0
0 0 0 0 0 0 0 0 0 0 0 0 0 0 0 0 0 0 0 0 0 0 0 0 0 0 0 0 0 0 0 0 0 0 0 0 0 0 0 0 0 0 0 0
0 0 0 0 0 0 0 0 0 0 0 0 0 0 0 0 0 0 0 0 0 0 0 0 0 0 0 0 0 0 0 0 0 0 0 0 0 0 0 0 0 0 0 0
0 0 0 0 0 0 0 0 0 0 0 0 0 0 0 0 0 0 0 0 0 0 0 0 0 0 0 0 0 0 0 0 0 0 0 0 0 0 0 0 0 0 0 0
0 0 0 0 0 0 0 0 0 0 0 0 0 0 0 0 0 0 0 0 0 0 0 0 0 0 0 0 0 0 0 0 0 0 0 0 0 0 0 0 0 0 0 0
0 0 0 0 0 0 0 0 0 0 0 0 0 0 0 0 0 0 0 0 0 0 0 0 0 0 0 0 0 0 0 0 0 0 0 0 0 0 0 0 0 0 0 0
0 0 0 0 0 0 0 0 0 0 0 0 0 0 0 0 0 0 0 0 0 0 0 0 0 0 0 0 0 0 0 0 0 0 0 0 0 0 0 0 0 0 0 0
0 0 0 0 0 0 0 0 0 0 0 0 0 0 0 0 0 0 0 0 0 0 0 0 0 0 0 0 0 0 0 0 0 0 0 0 0 0 0 0 0 0 0 0
0 0 0 0 0 0 0 0 0 0 0 0 0 0 0 0 0 0 0 0 0 0 0 0 0 0 0 0 0 0 0 0 0 0 0 0 0 0 0 0 0 0 0 0
0 0 0 0 0 0 0 0 0 0 0 0 0 0 0 0 0 0 0 0 0 0 0 0 0 0 0 0 0 0 0 0 0 0 0 0 0 0 0 0 0 0 0 0
0 0 0 0 0 0 0 0 0 0 0 0 0 0 0 0 0 0 0 0 0 0 0 0 0 0 0 0 0 0 0 0 0 0 0 0 0 0 0 0 0 0 0 0
0 0 0 0 0 0 0 0 0 0 0 0 0 0 0 0 0 0 0 0 0 0 0 0 0 0 0 0 0 0 0 0 0 0 0 0 0 0 0 0 0 0 0 0
0 0 0 0 0 0 0 0 0 0 0 0 0 0 0 0 0 0 0 0 0 0 0 0 0 0 0 0 0 0 0 0 0 0 0 0 0 0 0 0 0 0 0 0
0 0 0 0 0 0 0 0 0 0 0 0 0 0 0 0 0 0 0 0 0 0 0 0 0 0 0 0 0 0 0 0 0 0 0 0 0 0 0 0 0 0 0 0
0 0 0 0 0 0 0 0 0 0 0 0 0 0 0 0 0 0 0 0 0 0 0 0 0 0 0 0 0 0 0 0 0 0 0 0 0 0 0 0 0 0 0 0
0 0 0 0 0 0 0 0 0 0 0 0 0 0 0 0 0 0 0 0 0 0 0 0 0 0 0 0 0 0 0 0 0 0 0 0 0 0 0 0 0 0 0 0
0 0 0 0 0 0 0 0 0 0 0 0 0 0 0 0 0 0 0 0 0 0 0 0 0 0 0 0 0 0 0 0 0 0 0 0 0 0 0 0 0 0 0 0
0 0 0 0 0 0 0 0 0 0 0 0 0 0 0 0 0 0 0 0 0 0 0 0 0 0 0 0 0 0 0 0 0 0 0 0 0 0 0 0 0 0 0 0
0 0 0 0 0 0 0 0 0 0 0 0 0 0 0 0 0 0 0 0 0 0 0 0 0 0 0 0 0 0 0 0 0 0 0 0 0 0 0 0 0 0 0 0
0 0 0 0 0 0 0 0 0 0 0 0 0 0 0 0 0 0 0 0 0 0 0 0 0 0 0 0 0 0 0 0 0 0 0 0 0 0 0 0 0 0 0 0
Wind_Speed
3 2 3 4 5 7 7 7 8 8 7 11 8 8 8 6 6 5 6 6 5 5 4 4 3 3 3 3 3 2 3 4 5 5 5 6 6 7 7 7 7 6 7 7
1 1 2 3 5 6 6 5 7 6 10 9 5 3 4 6 6 7 7 7 6 5 5 4 4 3 2 2 2 1 2 3 4 5 5 6 6 6 7 7 7 7 7 7
1 3 3 6 6 8 6 7 8 8 9 4 3 6 8 8 8 9 9 7 7 6 5 5 4 3 3 2 1 1 2 3 4 4 5 5 5 6 6 6 7 7 7 7
1 2 3 8 3 6 6 7 8 8 7 6 7 6 5 7 8 9 8 7 7 6 5 4 3 2 2 1 0 1 2 3 3 4 4 5 5 5 5 4 5 5 6 7
3 0 6 7 2 5 4 6 6 8 7 4 1 2 5 6 8 10 9 7 7 6 5 4 4 3 2 1 1 1 2 3 3 3 3 4 5 5 4 4 5 5 5 7
4 1 4 6 2 2 2 5 5 5 5 3 5 1 7 5 7 8 7 6 6 5 4 4 4 4 3 2 2 3 3 3 2 2 2 3 3 3 3 3 3 4 5 6
4 2 8 8 2 2 1 6 4 4 5 7 8 8 5 2 4 6 6 6 5 5 5 5 5 5 4 4 5 5 3 2 2 2 2 2 2 2 3 3 3 4 4 5
5 3 8 3 4 5 8 4 2 3 4 7 8 6 3 3 4 5 5 6 6 5 6 5 5 6 5 6 6 3 2 2 2 2 2 1 1 2 2 3 3 3 4 4
9 8 5 2 4 4 2 3 3 3 4 5 5 5 5 4 5 5 6 6 5 6 6 5 6 7 7 7 5 4 3 3 3 2 1 1 1 1 2 2 2 2 3 3
4 6 4 4 3 4 4 5 5 4 3 3 5 5 5 5 5 5 6 6 5 6 6 7 7 8 8 6 5 5 5 4 3 2 2 1 1 1 1 1 1 1 2 2
3 5 5 4 5 8 6 4 4 3 2 2 4 4 4 5 5 6 6 5 5 6 8 9 7 8 8 6 6 6 5 5 4 3 3 2 2 2 3 3 3 2 2 1
4 2 2 5 7 9 7 6 5 4 4 2 2 4 4 5 5 5 5 5 5 7 8 8 7 8 8 7 7 7 6 5 4 4 3 3 3 3 4 6 6 6 6 4
3 3 3 4 6 8 6 7 6 5 4 5 4 3 3 4 4 3 4 5 7 9 9 8 7 8 8 7 8 9 8 6 5 4 4 4 3 3 3 3 4 6 7 7
2 1 2 4 5 7 7 6 5 6 6 6 5 4 3 3 3 3 5 7 7 7 7 7 7 9 8 7 9 9 8 9 7 5 5 5 5 4 4 3 3 3 4 6
4 4 2 2 4 7 7 7 9 10 10 9 8 6 6 5 5 6 6 5 4 5 6 6 7 10 7 8 9 10 8 6 6 5 5 5 5 4 4 4 4 4 3 3
2 4 5 6 7 8 9 10 10 9 9 9 9 9 8 6 6 6 6 4 3 6 7 7 9 11 6 7 9 8 8 12 10 6 5 5 5 5 5 5 5 4 5 4
4 4 4 5 6 7 8 7 6 7 8 9 9 9 8 8 8 9 8 6 5 6 6 6 9 8 5 7 8 7 7 8 12 7 6 6 6 6 6 6 6 6 6 6
5 4 4 3 3 5 6 7 7 8 8 8 8 8 9 9 9 10 10 8 6 6 6 6 8 8 6 6 7 7 7 7 7 8 7 7 7 7 6 6 7 7 6 5
6 6 5 5 4 4 4 5 6 6 7 8 8 8 8 8 8 9 9 8 9 9 11 10 14 9 7 7 7 5 6 7 7 7 7 9 8 7 7 7 7 7 6 5
5 5 5 4 4 4 4 4 5 6 7 7 8 8 9 10 10 9 8 6 5 7 11 13 11 8 8 7 8 5 7 8 8 8 7 7 7 8 8 8 8 7 7 6
4 4 4 4 4 4 4 4 4 5 6 7 7 8 8 8 9 9 8 8 9 11 12 15 10 8 8 9 8 5 7 7 8 8 8 8 8 8 8 8 8 8 7 7
3 3 3 3 3 3 3 4 4 5 5 6 7 7 7 8 9 8 6 5 9 16 12 8 9 13 15 13 5 5 6 7 7 6 7 7 8 8 8 9 8 8 8 7
2 2 1 1 1 2 3 3 4 4 4 5 5 6 6 6 5 6 8 8 8 16 12 8 16 22 21 10 6 5 5 6 6 6 7 7 8 8 8 9 8 8 8 7
2 1 1 0 0 1 2 3 3 3 3 4 4 4 4 5 5 4 5 11 15 16 9 13 21 23 19 9 7 6 6 5 5 5 5 5 6 6 7 7 7 7 7 8
3 2 1 1 1 2 3 3 3 4 4 4 5 5 3 2 3 5 6 7 13 13 8 13 20 21 13 9 9 8 7 6 6 5 4 5 5 5 6 6 7 7 7 7
3 3 3 3 3 3 2 2 2 3 3 3 4 4 4 3 4 5 5 6 9 11 8 7 9 11 9 9 9 9 8 8 8 6 5 5 5 5 5 5 7 6 6 7
3 2 2 2 3 3 3 3 3 3 3 3 4 5 4 4 4 5 5 5 6 6 6 6 6 7 7 7 8 8 8 8 7 7 6 5 5 4 5 6 5 5 5 5
Wind_Direction
220 223 178 208 197 176 184 192 204 240 245 261 253 234 231 228 228 233 245 249 247 252 265 274 280 291 297 307 324 340 350 349 343 339 343 350 354 354 356 5 7 1 4 5
12 9 213 250 235 202 214 213 230 259 272 257 257 227 225 224 220 228 237 240 243 245 254 261 259 265 276 295 311 339 345 336 338 345 350 355 355 357 4 7 7 11 11 8
310 324 18 282 242 195 212 213 196 223 245 260 244 229 224 219 217 224 229 231 232 235 240 247 245 235 237 264 300 345 333 334 343 347 350 349 355 6 9 7 10 13 11 11
91 41 256 247 251 186 210 244 217 231 248 235 234 244 240 215 210 223 224 224 226 226 233 237 227 212 206 211 253 318 324 329 337 345 344 347 360 6 4 3 8 9 9 7
104 108 290 299 250 172 186 281 225 223 247 246 226 4 296 226 207 216 216 212 215 214 215 216 211 195 178 199 243 289 297 305 317 333 341 349 355 353 355 6 10 10 8 11
116 144 253 256 281 177 117 296 269 207 228 180 123 66 271 244 203 214 212 206 208 205 198 208 207 175 175 209 233 254 261 274 295 313 329 338 338 340 347 1 5 8 14 12
145 218 265 252 250 126 115 257 271 207 204 172 189 209 239 248 204 203 203 205 198 192 201 213 189 169 192 215 234 241 247 265 293 304 300 308 332 343 350 3 15 16 12 7
145 184 261 252 152 178 222 251 267 232 206 200 225 242 255 238 219 204 202 203 193 195 215 211 180 177 203 227 234 228 221 246 275 292 306 328 344 344 358 11 19 11 7 2
184 208 242 245 217 255 257 260 265 251 242 217 230 239 237 233 225 216 209 207 197 199 216 214 193 188 209 229 215 203 210 233 254 273 288 305 311 330 347 4 12 359 3 356
247 268 269 269 284 305 279 257 273 266 260 207 224 240 236 232 226 222 218 212 200 197 213 224 210 206 217 221 194 194 214 228 235 243 259 266 261 250 253 280 309 328 338 335
252 291 322 347 1 334 316 300 306 309 274 237 230 247 235 233 229 224 221 213 197 203 218 228 216 216 219 208 188 199 215 223 225 227 232 242 244 235 231 234 214 218 236 243
215 257 269 295 334 340 341 342 339 343 349 339 244 255 251 242 237 227 224 212 210 218 226 232 220 223 220 201 189 196 212 220 218 218 222 224 239 271 250 239 250 238 225 214
247 287 260 282 330 345 346 353 2 16 1 344 329 291 270 261 255 242 237 224 223 226 229 230 223 229 225 199 191 198 209 213 210 211 213 215 215 227 265 283 264 253 244 234
311 341 56 11 345 343 353 359 18 30 18 6 353 345 329 303 294 268 251 243 238 236 235 229 226 236 229 197 196 206 211 215 209 209 210 211 213 213 217 235 267 279 262 245
20 48 70 8 8 13 14 22 32 23 11 6 4 0 350 332 306 284 275 273 258 248 246 236 235 245 231 198 202 208 208 213 211 208 207 208 210 210 213 220 231 249 269 272
62 62 57 51 37 25 25 28 27 12 4 0 360 354 343 329 313 309 312 308 274 259 255 245 244 249 230 205 208 211 214 217 206 204 205 205 205 208 214 218 225 233 241 242
107 70 43 41 33 27 25 21 16 5 1 0 352 345 349 354 354 346 335 321 288 272 274 265 263 266 241 214 210 215 213 217 212 204 206 206 206 210 213 214 220 227 235 229
102 100 92 81 58 37 23 17 14 10 3 351 349 359 5 4 352 339 333 332 333 325 316 303 295 290 264 233 221 220 214 210 204 207 209 209 210 211 209 213 220 228 237 236
92 88 78 67 60 53 33 17 8 4 0 0 5 6 1 355 346 339 341 352 356 343 330 321 312 302 280 256 236 226 220 215 211 212 209 212 212 211 211 215 220 224 226 223
90 85 80 68 54 50 37 17 10 13 8 7 10 9 6 358 351 346 345 349 343 323 319 326 323 310 297 282 256 233 226 222 219 216 211 210 212 215 215 216 219 222 222 221
101 90 78 64 49 39 29 15 16 13 5 10 15 7 356 349 350 350 351 346 339 334 332 334 333 322 314 306 279 247 233 229 224 219 215 215 216 218 218 217 219 220 221 221
115 96 76 57 44 23 6 6 10 6 5 6 6 1 357 353 350 348 346 333 327 337 339 332 331 332 332 322 294 263 247 239 234 227 221 218 217 219 221 220 220 221 220 218
142 128 95 51 24 348 347 357 359 357 354 350 347 346 341 332 334 341 336 333 331 341 344 335 339 342 343 335 319 296 273 257 247 240 233 228 224 222 223 223 223 221 218 217
164 170 193 252 24 13 343 325 328 327 321 316 316 317 320 324 324 318 305 325 340 346 344 341 349 352 351 344 334 326 310 291 274 261 251 243 237 231 227 225 225 224 222 221
189 201 206 205 247 260 268 292 311 314 317 313 310 309 305 289 291 307 316 323 337 347 341 344 352 354 354 345 343 338 330 319 310 294 273 260 251 246 241 234 230 228 226 224
196 210 222 222 226 237 248 257 270 282 291 301 303 300 302 300 297 303 311 319 326 338 339 334 338 345 345 344 343 342 338 335 332 323 308 292 276 264 257 251 244 238 234 231
213 219 233 259 255 233 230 235 247 265 265 266 280 288 295 300 303 306 310 313 317 321 321 324 328 332 334 335 337 339 339 338 336 332 329 321 312 297 284 271 263 256 247 239